This demonstration page uses our WeatherBlox Daily Observations layout. Learn more.

41.55636, -103.73856

Hourly Observations for May 31, 2018

Temp ( °F °C ) Dew Point ( °F °C ) Humidity (%) Winds ( mph kmh ) Pressure ( in mb ) Visibility ( mi km ) Precip ( " mm )
12:53 am 00:53 Clear 61 16.1 57 13.9 87 87 E 5 7 29.68 1005 10 16.09344 0 0
1:53 am 01:53 Clear 60 15.6 56 13.3 86 86 E 5 7 29.65 1004 10 16.09344 0 0
2:53 am 02:53 Clear 58 14.4 56 13.3 93 93 Calm 29.65 1004 10 16.09344 0 0
3:53 am 03:53 Clear 58 14.4 56 13.3 93 93 ESE 3 6 29.65 1004 10 16.09344 0 0
4:53 am 04:53 Clear 56 13.3 56 13.3 100 100 E 6 9 29.68 1005 10 16.09344 0 0
5:53 am 05:53 Sunny 55 12.8 55 12.8 100 100 ESE 5 7 29.71 1006 10 16.09344 0 0
6:53 am 06:53 Sunny 59 15 57 13.9 93 93 E 6 9 29.71 1006 10 16.09344 0 0
7:53 am 07:53 Sunny 63 17.2 58 14.4 84 84 ESE 3 6 29.71 1006 10 16.09344 0 0
8:53 am 08:53 Sunny 69 20.6 57 13.9 66 66 ESE 3 6 29.71 1006 10 16.09344 0 0
9:53 am 09:53 Sunny 73 22.8 56 13.3 55 55 N 5 7 29.71 1006 10 16.09344 0 0
10:53 am 10:53 Sunny 77 25 54 12.2 45 45 SSE 5 7 29.71 1006 10 16.09344 0 0
11:53 am 11:53 Sunny 81 27.2 60 15.6 49 49 SE 9 15 29.68 1005 10 16.09344 0 0
12:53 pm 12:53 Sunny 84 28.9 58 14.4 41 41 SE 13 20 29.68 1005 10 16.09344 0 0
1:53 pm 13:53 Sunny 86 30 53 11.7 32 32 SSE 13 20 29.68 1005 10 16.09344 0 0
2:53 pm 14:53 Sunny 87 30.6 54 12.2 32 32 SE 10 17 29.65 1004 10 16.09344 0 0
3:53 pm 15:53 Sunny 87 30.6 53 11.7 31 31 SE 14 22 29.65 1004 10 16.09344 0 0
4:53 pm 16:53 Sunny 86 30 56 13.3 36 36 SE 15 24 29.62 1003 10 16.09344 0 0
5:53 pm 17:53 Sunny 84 28.9 57 13.9 40 40 SE 13 20 29.62 1003 10 16.09344 0 0
6:53 pm 18:53 Sunny 82 27.8 59 15 46 46 SE 13 20 29.62 1003 10 16.09344 0 0
7:53 pm 19:53 Sunny 76 24.4 59 15 56 56 SE 9 15 29.62 1003 10 16.09344 0 0
8:53 pm 20:53 Clear 73 22.8 60 15.6 64 64 ESE 12 19 29.62 1003 10 16.09344 0 0
9:53 pm 21:53 Clear 72 22.2 59 15 64 64 SE 12 19 29.62 1003 10 16.09344 0 0
10:53 pm 22:53 Clear 74 23.3 58 14.4 57 57 SE 14 22 29.62 1003 10 16.09344 0 0
11:53 pm 23:53 Clear 73 22.8 58 14.4 59 59 ESE 15 24 29.62 1003 10 16.09344 0 0

Powered by AerisWeather